EW7602 Weather Reports


Display with metric or nautical units.
time (UTC)temp
F
wind
direction
speed
MPH
gust
MPH
rain 1hr
in
rain 24hr
in
rain mn
in
humidity
%
barometer
mb
20260510111147 52 176 5.0 14.0 0.00 0.02 0.02 95 1010.2
20260510110646 52 165 5.0 13.0 0.00 0.02 0.02 96 1010.2
20260510110144 51 183 5.0 13.0 0.00 0.02 0.02 96 1010.3
20260510105644 51 194 4.0 10.0 0.00 0.02 0.02 97 1010.1
20260510105138 51 199 3.0 9.0 0.00 0.02 0.02 97 1009.7
20260510104858 50 169 1.0 6.0 0.00 0.02 0.02 97 1009.7
20260510104127 50 213 0.0 3.0 0.00 0.02 0.02 97 1009.5
20260510103626 49 188 1.0 3.0 0.00 0.02 0.02 97 1009.6
20260510103346 49 188 2.0 7.0 0.00 0.02 0.02 97 1009.8
20260510102628 49 187 2.0 7.0 0.00 0.02 0.02 97 1010.1
20260510102317 49 264 2.0 5.0 0.00 0.02 0.02 97 1009.5
20260510102208 49 152 2.0 5.0 0.00 0.02 0.02 97 1009.9
20260510101345 49 189 2.0 7.0 0.00 0.02 0.02 97 1009.2
20260510100623 49 240 1.0 7.0 0.00 0.02 0.02 97 1009.0
20260510100122 48 200 1.0 5.0 0.00 0.02 0.02 96 1008.8
20260510095845 47 173 1.0 5.0 0.00 0.02 0.02 96 1009.0
20260510095122 47 221 0.0 2.0 0.00 0.02 0.02 96 1009.2
20260510094621 47 6 0.0 1.0 0.00 0.02 0.02 96 1009.4
20260510094121 47 6 0.0 1.0 0.00 0.02 0.02 96 1009.4
20260510093837 47 6 0.0 1.0 0.00 0.02 0.02 96 1009.3
20260510093117 47 6 0.0 1.0 0.00 0.02 0.02 96 1009.2
20260510092619 48 6 0.0 2.0 0.00 0.02 0.02 95 1009.1
20260510092118 48 6 1.0 2.0 0.00 0.02 0.02 95 1009.1
20260510091615 49 7 0.0 1.0 0.00 0.02 0.02 96 1008.9
20260510091109 49 314 0.0 2.0 0.00 0.02 0.02 96 1008.9
20260510091058 50 233 1.0 5.0 0.00 0.02 0.02 96 1008.7
20260510090318 50 212 2.0 5.0 0.00 0.02 0.02 96 1008.4
20260510085551 50 213 2.0 5.0 0.00 0.02 0.02 95 1008.3
20260510085045 50 186 2.0 6.0 0.00 0.02 0.02 95 1008.3
20260510084539 50 165 2.0 6.0 0.00 0.02 0.02 96 1008.4
20260510084033 50 221 2.0 6.0 0.00 0.02 0.02 95 1008.4
20260510083526 50 194 2.0 5.0 0.01 0.02 0.02 95 1008.6
20260510083021 51 203 3.0 10.0 0.01 0.02 0.02 95 1008.8
20260510082515 51 155 2.0 10.0 0.01 0.02 0.02 95 1008.6
20260510082008 51 282 2.0 7.0 0.01 0.02 0.02 95 1008.6
20260510081728 51 153 4.0 9.0 0.01 0.02 0.02 95 1008.7
20260510080958 51 227 4.0 9.0 0.02 0.02 0.02 95 1008.9
20260510080452 51 165 4.0 9.0 0.02 0.02 0.02 95 1008.9
20260510080434 51 202 5.0 13.0 0.02 0.02 0.02 95 1008.9
20260510075438 51 191 6.0 13.0 0.02 0.02 0.02 95 1008.9
20260510074933 50 207 6.0 13.0 0.02 0.02 0.02 95 1008.6
20260510074426 50 204 6.0 13.0 0.02 0.02 0.02 95 1008.8
20260510073921 50 149 5.0 13.0 0.02 0.02 0.02 95 1009.0
20260510073414 50 197 4.0 11.0 0.01 0.01 0.01 95 1009.0
20260510072908 50 185 3.0 11.0 0.01 0.01 0.01 94 1008.9
20260510072403 51 176 3.0 10.0 0.01 0.01 0.01 94 1008.9
20260510072119 51 184 3.0 8.0 0.01 0.01 0.01 92 1009.2
20260510071350 51 158 3.0 8.0 0.01 0.01 0.01 88 1009.3
20260510070844 52 165 4.0 15.0 0.00 0.00 0.00 86 1009.2
20260510070343 52 214 5.0 15.0 0.00 0.00 0.00 85 1009.3
20260510065842 52 184 6.0 13.0 0.00 0.00 0.00 84 1009.3
20260510065342 53 250 6.0 13.0 0.00 0.00 0.00 83 1009.3
20260510064841 53 207 6.0 17.0 0.00 0.00 0.00 82 1009.3
20260510064342 53 186 4.0 17.0 0.00 0.00 0.00 81 1009.2
20260510064105 53 262 3.0 7.0 0.00 0.00 0.00 79 1009.3
20260510063342 53 213 4.0 7.0 0.00 0.00 0.00 79 1009.1
20260510062840 53 227 4.0 7.0 0.00 0.00 0.00 79 1009.1
20260510062341 53 212 4.0 7.0 0.00 0.00 0.00 80 1008.9
20260510061839 53 165 3.0 7.0 0.00 0.00 0.00 80 1008.9
20260510061340 53 200 2.0 5.0 0.00 0.00 0.00 80 1008.9
20260510061102 53 224 1.0 7.0 0.00 0.00 0.00 80 1008.9
20260510060605 53 170 2.0 7.0 0.00 0.00 0.00 80 1008.8
20260510060105 53 165 1.0 6.0 0.00 0.00 0.00 80 1009.1
20260510055339 53 207 3.0 8.0 0.00 0.00 0.00 80 1009.2
20260510054839 53 203 4.0 8.0 0.00 0.00 0.00 80 1009.1
20260510054336 52 258 4.0 8.0 0.00 0.00 0.00 80 1009.1
20260510053837 52 195 4.0 10.0 0.00 0.00 0.00 80 1009.0
20260510053336 52 233 4.0 10.0 0.00 0.00 0.00 81 1008.9
20260510052835 52 174 3.0 8.0 0.00 0.00 0.00 81 1009.0
20260510052336 52 166 3.0 8.0 0.00 0.00 0.00 81 1009.0
20260510051836 52 184 3.0 7.0 0.00 0.00 0.00 81 1009.0
20260510051336 52 170 2.0 8.0 0.00 0.00 0.00 81 1008.9
20260510050836 52 180 2.0 8.0 0.00 0.00 0.00 81 1008.9
20260510050336 52 229 2.0 11.0 0.00 0.00 0.00 81 1009.1
20260510045835 52 187 3.0 11.0 0.00 0.00 0.00 81 1009.2
20260510045336 52 266 3.0 11.0 0.00 0.00 0.00 81 1009.1
20260510044836 52 73 3.0 10.0 0.00 0.00 0.00 81 1009.1
20260510044336 52 157 4.0 11.0 0.00 0.00 0.00 81 1009.0
20260510043837 52 152 4.0 11.0 0.00 0.00 0.00 81 1009.0
20260510043602 51 191 3.0 9.0 0.00 0.00 0.00 81 1009.1
20260510043102 51 184 3.0 9.0 0.00 0.00 0.00 81 1009.1
20260510042336 51 181 3.0 10.0 0.00 0.00 0.00 81 1009.0
20260510041835 52 212 2.0 10.0 0.00 0.00 0.00 81 1008.8
20260510041333 51 88 2.0 8.0 0.00 0.00 0.00 81 1008.8
20260510040832 51 172 2.0 8.0 0.00 0.00 0.00 81 1008.5
20260510040330 51 154 3.0 8.0 0.00 0.00 0.00 81 1008.5
20260510035829 51 179 2.0 7.0 0.00 0.00 0.00 82 1008.5
20260510035548 51 198 2.0 8.0 0.00 0.00 0.00 82 1008.5
20260510034828 51 206 2.0 8.0 0.00 0.00 0.00 82 1008.6
20260510034329 51 146 1.0 6.0 0.00 0.00 0.00 81 1008.8
20260510033831 51 184 2.0 9.0 0.00 0.00 0.00 81 1008.9
20260510033332 51 115 2.0 9.0 0.00 0.00 0.00 81 1009.0
20260510032832 51 113 1.0 6.0 0.00 0.00 0.00 81 1009.2
20260510032332 51 118 1.0 6.0 0.00 0.00 0.00 81 1009.2
20260510031822 51 180 2.0 9.0 0.00 0.00 0.00 82 1009.2
20260510031310 51 82 2.0 9.0 0.00 0.00 0.00 82 1009.0
20260510031032 51 176 1.0 5.0 0.00 0.00 0.00 82 1008.9
20260510030309 51 176 1.0 5.0 0.00 0.00 0.00 82 1009.1
20260510025809 51 52 2.0 8.0 0.00 0.00 0.00 82 1009.2
20260510025309 51 161 2.0 8.0 0.00 0.00 0.00 82 1009.1
20260510024809 51 172 2.0 8.0 0.00 0.00 0.00 82 1009.1
20260510024310 51 163 2.0 8.0 0.00 0.00 0.00 82 1008.9
20260510023809 51 273 2.0 8.0 0.00 0.00 0.00 82 1009.0
20260510023309 51 251 2.0 8.0 0.00 0.00 0.00 83 1009.0
20260510022804 51 206 2.0 6.0 0.00 0.00 0.00 83 1009.1
20260510022523 51 156 2.0 7.0 0.00 0.00 0.00 83 1009.1
20260510022031 51 197 2.0 7.0 0.00 0.00 0.00 83 1009.1
20260510021302 50 90 2.0 9.0 0.00 0.00 0.00 83 1009.2
20260510020801 50 162 2.0 9.0 0.00 0.00 0.00 83 1009.6
20260510020301 50 113 2.0 10.0 0.00 0.00 0.00 83 1009.4
20260510015800 50 169 2.0 10.0 0.00 0.00 0.00 83 1009.4
20260510015300 51 134 3.0 11.0 0.00 0.00 0.00 82 1009.4
20260510014800 51 122 2.0 11.0 0.00 0.00 0.00 82 1009.5
20260510014525 51 273 3.0 10.0 0.00 0.00 0.00 82 1009.3
20260510013800 50 115 3.0 10.0 0.00 0.00 0.00 82 1009.3
20260510013257 50 220 4.0 15.0 0.00 0.00 0.00 82 1009.4
20260510012756 50 120 4.0 15.0 0.00 0.00 0.00 82 1009.5
20260510012257 50 197 2.0 10.0 0.00 0.00 0.00 82 1009.6
20260510011756 50 148 2.0 10.0 0.00 0.00 0.00 82 1009.7
20260510011256 50 108 2.0 8.0 0.00 0.00 0.00 81 1009.7
20260510010759 50 167 2.0 6.0 0.00 0.00 0.00 81 1009.7
20260510010252 50 158 1.0 6.0 0.00 0.00 0.00 81 1009.6
20260510005748 50 55 1.0 6.0 0.00 0.00 0.00 81 1009.7
20260510005241 50 155 1.0 5.0 0.00 0.00 0.00 81 1009.6
20260510004735 50 169 2.0 9.0 0.00 0.00 0.00 81 1009.8
20260510004229 50 46 2.0 9.0 0.00 0.00 0.00 81 1009.7
20260510003723 50 167 2.0 7.0 0.00 0.00 0.00 81 1009.7
20260510003217 50 155 2.0 7.0 0.00 0.00 0.00 81 1009.7
20260510002711 50 160 2.0 7.0 0.00 0.00 0.00 80 1009.7
20260510002204 51 195 2.0 7.0 0.00 0.00 0.00 80 1009.7
20260510001920 51 116 2.0 7.0 0.00 0.00 0.00 80 1009.7
20260510001152 51 206 2.0 7.0 0.00 0.00 0.00 80 1009.7
20260510000648 51 154 2.0 9.0 0.00 0.00 0.00 80 1009.7
20260510000142 51 165 3.0 11.0 0.00 0.00 0.00 80 1009.6
20260509235634 51 167 3.0 11.0 0.00 0.00 0.00 79 1009.6
20260509235129 51 178 2.0 7.0 0.00 0.00 0.00 79 1009.6
20260509234622 51 181 1.0 7.0 0.00 0.00 0.00 79 1009.6
20260509234118 51 105 1.0 7.0 0.00 0.00 0.00 80 1009.4
20260509233611 50 264 1.0 7.0 0.00 0.00 0.00 80 1009.5
20260509233104 50 30 1.0 5.0 0.00 0.00 0.00 79 1009.5
20260509232559 50 150 2.0 8.0 0.00 0.00 0.00 79 1009.5
20260509232053 50 136 2.0 8.0 0.00 0.00 0.00 79 1009.5
20260509231547 50 150 2.0 6.0 0.00 0.00 0.00 79 1009.5
20260509231040 50 106 1.0 4.0 0.00 0.00 0.00 79 1009.4
20260509230534 50 148 1.0 5.0 0.00 0.00 0.00 79 1009.5
20260509230249 50 184 1.0 6.0 0.00 0.00 0.00 79 1009.5
20260509225524 50 218 1.0 6.0 0.00 0.00 0.00 79 1009.4
20260509225016 50 35 2.0 6.0 0.00 0.00 0.00 78 1009.5
20260509224510 50 112 2.0 5.0 0.00 0.00 0.00 78 1009.5
20260509224232 50 203 1.0 4.0 0.00 0.00 0.00 78 1009.5
20260509223458 51 125 2.0 7.0 0.00 0.00 0.00 78 1009.6
20260509222957 51 138 3.0 7.0 0.00 0.00 0.00 78 1009.6
20260509222454 51 226 2.0 8.0 0.00 0.00 0.00 77 1009.7
20260509222220 51 99 3.0 12.0 0.00 0.00 0.00 77 1009.7
20260509221453 51 153 3.0 12.0 0.00 0.00 0.00 76 1009.8
20260509220954 51 150 3.0 10.0 0.00 0.00 0.00 76 1009.8
20260509220454 51 184 3.0 9.0 0.00 0.00 0.00 76 1009.7
20260509215952 51 156 3.0 10.0 0.00 0.00 0.00 76 1009.7
20260509215452 51 124 3.0 10.0 0.00 0.00 0.00 76 1009.7
20260509214953 51 166 3.0 10.0 0.00 0.00 0.00 77 1009.7
20260509214452 51 272 3.0 10.0 0.00 0.00 0.00 77 1009.8
20260509213952 51 237 1.0 6.0 0.00 0.00 0.00 78 1009.9
20260509213452 50 115 2.0 9.0 0.00 0.00 0.00 79 1010.1
20260509212952 50 211 3.0 9.0 0.00 0.00 0.00 78 1010.1
20260509212452 50 140 2.0 9.0 0.00 0.00 0.00 79 1010.1
20260509212225 50 233 2.0 8.0 0.00 0.00 0.00 79 1010.2
20260509211454 50 160 2.0 7.0 0.00 0.00 0.00 79 1010.2
20260509210955 50 155 2.0 7.0 0.00 0.00 0.00 79 1010.2
20260509210449 50 183 3.0 10.0 0.00 0.00 0.00 79 1010.1
20260509210425 50 136 4.0 14.0 0.00 0.00 0.00 78 1010.3
20260509205437 50 122 3.0 14.0 0.00 0.00 0.00 78 1010.3
20260509205203 50 108 3.0 14.0 0.00 0.00 0.00 78 1010.4
20260509204436 50 200 3.0 11.0 0.00 0.00 0.00 77 1010.4
20260509204156 50 138 4.0 16.0 0.00 0.00 0.00 77 1010.4
20260509203435 50 156 3.0 16.0 0.00 0.00 0.00 77 1010.4
20260509202935 50 154 2.0 7.0 0.00 0.00 0.00 77 1010.5
20260509202435 50 162 2.0 7.0 0.00 0.00 0.00 77 1010.6
20260509201935 50 105 3.0 11.0 0.00 0.00 0.00 77 1010.6
20260509201435 51 211 4.0 12.0 0.00 0.00 0.00 76 1010.7
20260509200936 51 221 3.0 12.0 0.00 0.00 0.00 74 1010.6
20260509200436 52 154 2.0 9.0 0.00 0.00 0.00 74 1010.7
20260509195936 52 174 2.0 8.0 0.00 0.00 0.00 73 1010.5
20260509195924 52 241 3.0 8.0 0.00 0.00 0.00 73 1010.6
20260509195200 52 172 4.0 12.0 0.00 0.00 0.00 73 1010.7
20260509194434 52 191 4.0 12.0 0.00 0.00 0.00 72 1010.7
20260509194156 52 159 3.0 8.0 0.00 0.00 0.00 72 1010.6
20260509193436 52 153 4.0 11.0 0.00 0.00 0.00 71 1010.6
20260509192935 52 148 3.0 11.0 0.00 0.00 0.00 72 1010.7
20260509192657 52 101 4.0 9.0 0.00 0.00 0.00 72 1010.7
20260509191934 52 115 4.0 14.0 0.00 0.00 0.00 71 1010.6
20260509191434 52 156 3.0 14.0 0.00 0.00 0.00 73 1010.6
20260509190934 51 179 2.0 8.0 0.00 0.00 0.00 73 1010.8
20260509190434 51 167 2.0 7.0 0.00 0.00 0.00 73 1010.9
20260509185936 51 201 2.0 7.0 0.00 0.00 0.00 74 1011.0
20260509185434 51 226 2.0 6.0 0.00 0.00 0.00 73 1011.1
20260509184933 51 168 2.0 10.0 0.00 0.00 0.00 73 1011.1
20260509184433 51 101 1.0 10.0 0.00 0.00 0.00 72 1011.2
20260509183934 51 105 1.0 7.0 0.00 0.00 0.00 72 1011.2
20260509183433 51 162 2.0 11.0 0.00 0.00 0.00 71 1011.3
20260509182932 51 127 2.0 11.0 0.00 0.00 0.00 70 1011.4
20260509182431 51 120 3.0 10.0 0.00 0.00 0.00 69 1011.4
20260509182152 51 69 3.0 10.0 0.00 0.00 0.00 69 1011.4
20260509181432 51 76 3.0 9.0 0.00 0.00 0.00 68 1011.5
20260509181151 52 97 4.0 13.0 0.00 0.00 0.00 66 1011.5
20260509180655 52 95 5.0 17.0 0.00 0.00 0.00 65 1011.4
20260509175926 53 108 6.0 16.0 0.00 0.00 0.00 62 1011.4
20260509175418 53 78 5.0 19.0 0.00 0.00 0.00 60 1011.4
20260509174912 54 83 5.0 19.0 0.00 0.00 0.00 59 1011.4
20260509174407 55 169 6.0 20.0 0.00 0.00 0.00 57 1011.4
20260509174124 56 68 6.0 20.0 0.00 0.00 0.00 55 1011.4
20260509173354 56 164 5.0 12.0 0.00 0.00 0.00 51 1011.4
20260509172850 56 218 5.0 12.0 0.00 0.00 0.00 47 1011.3
20260509172342 56 250 5.0 14.0 0.00 0.00 0.00 46 1011.3
20260509171837 56 188 5.0 14.0 0.00 0.00 0.00 45 1011.4
20260509171332 57 148 5.0 13.0 0.00 0.00 0.00 43 1011.4
20260509171057 57 158 4.0 10.0 0.00 0.00 0.00 41 1011.3
20260509170319 58 171 4.0 11.0 0.00 0.00 0.00 41 1011.2
20260509165813 58 202 4.0 11.0 0.00 0.00 0.00 39 1011.3
20260509165307 58 198 4.0 10.0 0.00 0.00 0.00 41 1011.4
20260509164801 58 237 4.0 10.0 0.00 0.00 0.00 40 1011.4
20260509164256 58 227 2.0 7.0 0.00 0.00 0.00 42 1011.3
20260509163749 57 153 3.0 8.0 0.00 0.00 0.00 41 1011.5
20260509163734 57 136 4.0 8.0 0.00 0.00 0.00 39 1011.5
20260509162737 58 200 4.0 11.0 0.00 0.00 0.00 39 1011.6
20260509162231 58 229 4.0 11.0 0.00 0.00 0.00 39 1011.6
20260509161725 58 157 4.0 14.0 0.00 0.00 0.00 35 1011.6
20260509161448 58 185 3.0 14.0 0.00 0.00 0.00 35 1011.6
20260509160713 58 113 4.0 18.0 0.00 0.00 0.00 37 1011.6
20260509160433 58 60 4.0 18.0 0.00 0.00 0.00 34 1011.8
20260509155702 59 169 4.0 11.0 0.00 0.00 0.00 34 1011.7
20260509155155 59 181 2.0 11.0 0.00 0.00 0.00 37 1011.6
20260509154650 58 271 2.0 5.0 0.00 0.00 0.00 36 1011.8
20260509154144 58 172 3.0 8.0 0.00 0.00 0.00 35 1011.9
20260509153637 58 205 3.0 8.0 0.00 0.00 0.00 35 1012.0
20260509153131 58 141 3.0 7.0 0.00 0.00 0.00 36 1012.0
20260509152624 58 240 3.0 10.0 0.00 0.00 0.00 35 1012.0
20260509152343 59 186 3.0 10.0 0.00 0.00 0.00 35 1012.1
20260509151612 59 119 2.0 10.0 0.00 0.00 0.00 36 1012.1
20260509151107 59 50 1.0 10.0 0.00 0.00 0.00 36 1012.2
20260509150601 58 211 1.0 5.0 0.00 0.00 0.00 38 1012.2
20260509150056 58 166 2.0 7.0 0.00 0.00 0.00 37 1012.3
20260509145548 57 241 2.0 7.0 0.00 0.00 0.00 40 1012.3
20260509145043 57 92 2.0 7.0 0.00 0.00 0.00 37 1012.2
20260509144539 57 161 2.0 7.0 0.00 0.00 0.00 38 1012.3
20260509144039 57 172 2.0 5.0 0.00 0.00 0.00 41 1012.4
20260509143757 56 262 4.0 14.0 0.00 0.00 0.00 37 1012.5
20260509143633 56 165 4.0 14.0 0.00 0.00 0.00 38 1012.4
20260509143031 56 196 4.0 13.0 0.00 0.00 0.00 40 1012.6
20260509142036 56 95 4.0 13.0 0.00 0.00 0.00 39 1012.6
20260509141802 56 245 3.0 11.0 0.00 0.00 0.00 39 1012.7
20260509141036 56 234 2.0 7.0 0.00 0.00 0.00 42 1012.7
20260509140540 55 151 3.0 9.0 0.00 0.00 0.00 40 1012.6
20260509140038 55 227 4.0 11.0 0.00 0.00 0.00 39 1012.6
20260509135537 55 278 3.0 11.0 0.00 0.00 0.00 41 1012.6
20260509135036 55 254 3.0 9.0 0.00 0.00 0.00 42 1012.7
20260509134537 55 152 3.0 8.0 0.00 0.00 0.00 41 1012.7
20260509134038 55 193 3.0 11.0 0.00 0.00 0.00 41 1012.8
20260509133537 54 174 3.0 11.0 0.00 0.00 0.00 40 1012.7
20260509133300 54 250 2.0 6.0 0.00 0.00 0.00 44 1012.7
20260509132534 54 186 2.0 7.0 0.00 0.00 0.00 44 1012.8
20260509132034 54 191 4.0 10.0 0.00 0.00 0.00 45 1012.9
20260509131533 53 162 4.0 11.0 0.00 0.00 0.00 43 1013.0
20260509131035 53 172 4.0 11.0 0.00 0.00 0.00 43 1013.1
20260509130532 53 170 4.0 9.0 0.00 0.00 0.00 42 1013.1
20260509130035 53 233 4.0 8.0 0.00 0.00 0.00 42 1013.1
20260509125535 53 203 3.0 7.0 0.00 0.00 0.00 43 1013.1
20260509125254 53 160 2.0 8.0 0.00 0.00 0.00 42 1013.1
20260509124536 52 148 2.0 8.0 0.00 0.00 0.00 46 1013.3
20260509124033 51 166 2.0 6.0 0.00 0.00 0.00 49 1013.3
20260509123533 51 255 3.0 5.0 0.00 0.00 0.00 51 1013.4
20260509123033 50 239 2.0 4.0 0.00 0.00 0.00 55 1013.4
20260509122802 49 214 1.0 4.0 0.00 0.00 0.00 57 1013.4
20260509122033 48 200 1.0 3.0 0.00 0.00 0.00 60 1013.4
20260509121533 47 220 1.0 4.0 0.00 0.00 0.00 61 1013.3
20260509121033 47 214 1.0 4.0 0.00 0.00 0.00 61 1013.3
20260509120531 46 236 0.0 2.0 0.00 0.00 0.00 61 1013.3
20260509120029 46 249 0.0 2.0 0.00 0.00 0.00 61 1013.3
20260509115750 45 196 0.0 2.0 0.00 0.00 0.00 63 1013.4
20260509115248 44 36 0.0 2.0 0.00 0.00 0.00 67 1013.4
20260509114525 44 15 0.0 0.0 0.00 0.00 0.00 70 1013.4
20260509114248 45 15 0.0 0.0 0.00 0.00 0.00 70 1013.3
20260509113526 44 15 0.0 0.0 0.00 0.00 0.00 70 1013.4
20260509113024 43 15 0.0 0.0 0.00 0.00 0.00 75 1013.4
20260509112525 41 16 0.0 0.0 0.00 0.00 0.00 77 1013.3
20260509112024 40 15 0.0 0.0 0.00 0.00 0.00 78 1013.3
20260509111524 39 16 0.0 2.0 0.00 0.00 0.00 78 1013.3